Time,TemperatureF,DewpointF,PressureIn,WindDirection,WindDirectionDegrees,WindSpeedMPH,WindSpeedGustMPH,Humidity,HourlyPrecipIn,Conditions,Clouds,dailyrainin,SoftwareType,DateUTC
2013-06-06 00:02:00,75.0,-99.9,30.04,WNW,300,0.0,0.0,-999,0.00,,,0.00,,2013-06-06 07:02:00,
2013-06-06 00:12:00,75.0,-99.9,30.04,WNW,300,0.0,0.0,-999,0.00,,,0.00,,2013-06-06 07:12:00,
2013-06-06 00:22:00,72.0,-99.9,30.04,WNW,300,0.0,0.0,-999,0.00,,,0.00,,2013-06-06 07:22:00,
2013-06-06 00:33:00,73.0,-99.9,30.03,WNW,300,0.0,0.0,-999,0.00,,,0.00,,2013-06-06 07:33:00,
2013-06-06 00:42:00,73.0,-99.9,30.03,WNW,300,0.0,0.0,-999,0.00,,,0.00,,2013-06-06 07:42:00,
2013-06-06 00:52:00,70.0,-99.9,30.04,WNW,300,0.0,0.0,-999,0.00,,,0.00,,2013-06-06 07:52:00,
2013-06-06 01:02:00,70.0,-99.9,30.03,WNW,300,0.0,0.0,-999,0.00,,,0.00,,2013-06-06 08:02:00,
2013-06-06 01:12:00,69.0,-99.9,30.03,WNW,300,0.0,0.0,-999,0.00,,,0.00,,2013-06-06 08:12:00,
2013-06-06 01:22:00,69.0,-99.9,30.03,WNW,300,0.0,0.0,-999,0.00,,,0.00,,2013-06-06 08:22:00,
2013-06-06 01:32:00,69.0,-99.9,30.03,WNW,300,0.0,0.0,-999,0.00,,,0.00,,2013-06-06 08:32:00,
2013-06-06 01:42:00,68.0,-99.9,30.03,WNW,300,0.0,0.0,-999,0.00,,,0.00,,2013-06-06 08:42:00,
2013-06-06 01:52:00,68.0,-99.9,30.03,WNW,300,0.0,0.0,-999,0.00,,,0.00,,2013-06-06 08:52:00,
2013-06-06 02:02:00,68.0,-99.9,30.02,SSE,167,1.0,4.0,-999,0.00,,,0.00,,2013-06-06 09:02:00,
2013-06-06 02:12:00,68.0,-99.9,30.02,SSE,167,0.0,0.0,-999,0.00,,,0.00,,2013-06-06 09:12:00,
2013-06-06 02:22:00,68.0,-99.9,30.02,SSE,167,0.0,0.0,-999,0.00,,,0.00,,2013-06-06 09:22:00,
2013-06-06 02:33:00,68.0,-99.9,30.02,SSE,167,0.0,0.0,-999,0.00,,,0.00,,2013-06-06 09:33:00,
2013-06-06 02:43:00,68.0,-99.9,30.02,SSE,167,0.0,0.0,-999,0.00,,,0.00,,2013-06-06 09:43:00,
2013-06-06 02:53:00,67.0,-99.9,30.02,SSE,167,0.0,0.0,-999,0.00,,,0.00,,2013-06-06 09:53:00,
2013-06-06 03:03:00,68.0,-99.9,30.02,SSE,167,0.0,0.0,-999,0.00,,,0.00,,2013-06-06 10:03:00,
2013-06-06 03:12:00,68.0,-99.9,30.02,SSE,167,0.0,0.0,-999,0.00,,,0.00,,2013-06-06 10:12:00,
2013-06-06 03:23:00,68.0,-99.9,30.02,SSE,167,0.0,0.0,-999,0.00,,,0.00,,2013-06-06 10:23:00,
2013-06-06 03:33:00,66.0,-99.9,30.02,SSE,167,0.0,0.0,-999,0.00,,,0.00,,2013-06-06 10:33:00,
2013-06-06 03:42:00,65.0,-99.9,30.02,South,170,0.0,0.0,-999,0.00,,,0.00,,2013-06-06 10:42:00,
2013-06-06 03:53:00,65.0,-99.9,30.02,South,170,0.0,0.0,-999,0.00,,,0.00,,2013-06-06 10:53:00,
2013-06-06 04:02:00,63.0,-99.9,30.02,South,182,0.0,0.0,-999,0.00,,,0.00,,2013-06-06 11:02:00,
2013-06-06 04:12:00,62.0,-99.9,30.02,South,182,0.0,0.0,-999,0.00,,,0.00,,2013-06-06 11:12:00,
2013-06-06 04:23:00,62.0,-99.9,30.02,South,182,0.0,0.0,-999,0.00,,,0.00,,2013-06-06 11:23:00,
2013-06-06 04:32:00,64.0,-99.9,30.02,South,182,0.0,0.0,-999,0.00,,,0.00,,2013-06-06 11:32:00,
2013-06-06 04:42:00,64.0,-99.9,30.02,South,182,0.0,0.0,-999,0.00,,,0.00,,2013-06-06 11:42:00,
2013-06-06 04:52:00,62.0,-99.9,30.03,South,182,0.0,0.0,-999,0.00,,,0.00,,2013-06-06 11:52:00,
2013-06-06 05:03:00,62.0,-99.9,30.03,South,182,0.0,0.0,-999,0.00,,,0.00,,2013-06-06 12:03:00,
2013-06-06 05:13:00,61.0,-99.9,30.03,South,182,0.0,0.0,-999,0.00,,,0.00,,2013-06-06 12:13:00,
2013-06-06 05:23:00,61.0,-99.9,30.03,South,182,0.0,0.0,-999,0.00,,,0.00,,2013-06-06 12:23:00,
2013-06-06 05:33:00,61.0,-99.9,30.03,South,182,0.0,0.0,-999,0.00,,,0.00,,2013-06-06 12:33:00,
2013-06-06 05:43:00,60.0,-99.9,30.03,SSE,149,0.0,3.0,-999,0.00,,,0.00,,2013-06-06 12:43:00,
2013-06-06 05:53:00,60.0,-99.9,30.03,SSE,149,0.0,3.0,-999,0.00,,,0.00,,2013-06-06 12:53:00,
2013-06-06 06:03:00,63.0,-99.9,30.04,SSE,149,0.0,0.0,-999,0.00,,,0.00,,2013-06-06 13:03:00,
2013-06-06 06:13:00,60.0,-99.9,30.04,SW,225,0.0,1.0,-999,0.00,,,0.00,,2013-06-06 13:13:00,
2013-06-06 06:23:00,60.0,-99.9,30.04,SW,225,0.0,1.0,-999,0.00,,,0.00,,2013-06-06 13:23:00,
2013-06-06 06:33:00,63.0,-99.9,30.04,SW,222,0.0,0.0,-999,0.00,,,0.00,,2013-06-06 13:33:00,
2013-06-06 06:43:00,64.0,-99.9,30.05,SW,222,0.0,0.0,-999,0.00,,,0.00,,2013-06-06 13:43:00,
2013-06-06 06:53:00,64.0,-99.9,30.05,SW,222,0.0,0.0,-999,0.00,,,0.00,,2013-06-06 13:53:00,
2013-06-06 07:03:00,63.0,-99.9,30.05,SSW,198,0.0,0.0,-999,0.00,,,0.00,,2013-06-06 14:03:00,
2013-06-06 07:13:00,65.0,-99.9,30.05,SSW,198,0.0,0.0,-999,0.00,,,0.00,,2013-06-06 14:13:00,
2013-06-06 07:23:00,65.0,-99.9,30.05,SSW,198,0.0,0.0,-999,0.00,,,0.00,,2013-06-06 14:23:00,
2013-06-06 07:33:00,66.0,-99.9,30.05,SSW,198,0.0,0.0,-999,0.00,,,0.00,,2013-06-06 14:33:00,
2013-06-06 07:43:00,66.0,-99.9,30.05,SSW,198,0.0,0.0,-999,0.00,,,0.00,,2013-06-06 14:43:00,
2013-06-06 07:53:00,67.0,-99.9,30.05,SSW,198,0.0,0.0,-999,0.00,,,0.00,,2013-06-06 14:53:00,
2013-06-06 08:03:00,70.0,-99.9,30.05,SSW,198,0.0,0.0,-999,0.00,,,0.00,,2013-06-06 15:03:00,
2013-06-06 08:13:00,72.0,-99.9,30.05,SSE,151,0.0,3.0,-999,0.00,,,0.00,,2013-06-06 15:13:00,
2013-06-06 08:23:00,72.0,-99.9,30.05,SSE,151,0.0,3.0,-999,0.00,,,0.00,,2013-06-06 15:23:00,
2013-06-06 08:33:00,74.0,-99.9,30.05,SSE,151,0.0,0.0,-999,0.00,,,0.00,,2013-06-06 15:33:00,
2013-06-06 08:43:00,74.0,-99.9,30.05,SSE,151,0.0,0.0,-999,0.00,,,0.00,,2013-06-06 15:43:00,
2013-06-06 08:53:00,76.0,-99.9,30.06,SE,144,0.0,3.0,-999,0.00,,,0.00,,2013-06-06 15:53:00,
2013-06-06 09:03:00,78.0,-99.9,30.06,SE,144,0.0,0.0,-999,0.00,,,0.00,,2013-06-06 16:03:00,
2013-06-06 09:13:00,78.0,-99.9,30.06,SE,144,0.0,0.0,-999,0.00,,,0.00,,2013-06-06 16:13:00,
2013-06-06 09:23:00,79.0,-99.9,30.05,South,175,0.0,3.0,-999,0.00,,,0.00,,2013-06-06 16:23:00,
2013-06-06 09:34:00,80.0,-99.9,30.05,South,175,0.0,0.0,-999,0.00,,,0.00,,2013-06-06 16:34:00,
2013-06-06 09:44:00,80.0,-99.9,30.05,South,175,0.0,0.0,-999,0.00,,,0.00,,2013-06-06 16:44:00,
2013-06-06 09:53:00,83.0,-99.9,30.05,South,175,0.0,0.0,-999,0.00,,,0.00,,2013-06-06 16:53:00,
2013-06-06 10:03:00,85.0,-99.9,30.05,South,175,0.0,0.0,-999,0.00,,,0.00,,2013-06-06 17:03:00,
2013-06-06 10:13:00,85.0,-99.9,30.05,South,175,0.0,0.0,-999,0.00,,,0.00,,2013-06-06 17:13:00,
2013-06-06 10:23:00,85.0,-99.9,30.05,South,175,0.0,0.0,-999,0.00,,,0.00,,2013-06-06 17:23:00,
2013-06-06 10:33:00,88.0,-99.9,30.05,South,175,0.0,0.0,-999,0.00,,,0.00,,2013-06-06 17:33:00,
2013-06-06 10:43:00,88.0,-99.9,30.05,South,175,0.0,0.0,-999,0.00,,,0.00,,2013-06-06 17:43:00,
2013-06-06 10:53:00,90.0,-99.9,30.04,East,98,2.0,6.0,-999,0.00,,,0.00,,2013-06-06 17:53:00,
2013-06-06 11:03:00,91.0,-99.9,30.04,NNE,28,1.0,6.0,-999,0.00,,,0.00,,2013-06-06 18:03:00,
2013-06-06 11:13:00,91.0,-99.9,30.04,NNE,28,1.0,6.0,-999,0.00,,,0.00,,2013-06-06 18:13:00,
2013-06-06 11:23:00,91.0,-99.9,30.04,NNE,28,1.0,6.0,-999,0.00,,,0.00,,2013-06-06 18:23:00,
2013-06-06 11:33:00,93.0,-99.9,30.03,NNW,345,0.0,6.0,-999,0.00,,,0.00,,2013-06-06 18:33:00,
2013-06-06 11:43:00,93.0,-99.9,30.03,NNW,345,0.0,6.0,-999,0.00,,,0.00,,2013-06-06 18:43:00,
2013-06-06 11:53:00,93.0,-99.9,30.03,North,5,0.0,3.0,-999,0.00,,,0.00,,2013-06-06 18:53:00,
2013-06-06 12:03:00,92.0,-99.9,30.03,WSW,241,0.0,4.0,-999,0.00,,,0.00,,2013-06-06 19:03:00,
2013-06-06 12:13:00,93.0,-99.9,30.02,WSW,241,0.0,0.0,-999,0.00,,,0.00,,2013-06-06 19:13:00,
2013-06-06 12:23:00,93.0,-99.9,30.02,WSW,241,0.0,0.0,-999,0.00,,,0.00,,2013-06-06 19:23:00,
2013-06-06 12:34:00,95.0,-99.9,30.02,East,91,0.0,7.0,-999,0.00,,,0.00,,2013-06-06 19:34:00,
2013-06-06 12:43:00,95.0,-99.9,30.02,East,91,0.0,7.0,-999,0.00,,,0.00,,2013-06-06 19:43:00,
2013-06-06 12:53:00,95.0,-99.9,30.02,NW,309,0.0,0.0,-999,0.00,,,0.00,,2013-06-06 19:53:00,
2013-06-06 13:03:00,97.0,-99.9,30.01,SE,129,2.0,6.0,-999,0.00,,,0.00,,2013-06-06 20:03:00,
2013-06-06 13:13:00,95.0,-99.9,30.01,SE,129,0.0,0.0,-999,0.00,,,0.00,,2013-06-06 20:13:00,
2013-06-06 13:23:00,95.0,-99.9,30.01,SE,129,0.0,0.0,-999,0.00,,,0.00,,2013-06-06 20:23:00,
2013-06-06 13:33:00,96.0,-99.9,30.00,WSW,240,0.0,6.0,-999,0.00,,,0.00,,2013-06-06 20:33:00,
2013-06-06 13:43:00,96.0,-99.9,30.00,WSW,240,0.0,6.0,-999,0.00,,,0.00,,2013-06-06 20:43:00,
2013-06-06 13:53:00,97.0,-99.9,30.00,NNE,12,0.0,0.0,-999,0.00,,,0.00,,2013-06-06 20:53:00,
2013-06-06 14:03:00,97.0,-99.9,29.99,North,7,0.0,5.0,-999,0.00,,,0.00,,2013-06-06 21:03:00,
2013-06-06 14:13:00,98.0,-99.9,29.99,North,358,0.0,11.0,-999,0.00,,,0.00,,2013-06-06 21:13:00,
2013-06-06 14:23:00,98.0,-99.9,29.99,North,358,0.0,11.0,-999,0.00,,,0.00,,2013-06-06 21:23:00,
2013-06-06 14:33:00,97.0,-99.9,29.98,NNE,25,0.0,0.0,-999,0.00,,,0.00,,2013-06-06 21:33:00,
2013-06-06 14:44:00,97.0,-99.9,29.98,NNE,25,0.0,0.0,-999,0.00,,,0.00,,2013-06-06 21:44:00,
2013-06-06 14:53:00,98.0,-99.9,29.98,East,85,1.0,4.0,-999,0.00,,,0.00,,2013-06-06 21:53:00,
2013-06-06 15:03:00,100.0,-99.9,29.96,ESE,111,1.0,7.0,-999,0.00,,,0.00,,2013-06-06 22:03:00,
2013-06-06 15:13:00,100.0,-99.9,29.96,SSE,160,0.0,8.0,-999,0.00,,,0.00,,2013-06-06 22:13:00,
2013-06-06 15:23:00,100.0,-99.9,29.96,SSE,160,0.0,8.0,-999,0.00,,,0.00,,2013-06-06 22:23:00,
2013-06-06 15:33:00,101.0,-99.9,29.95,NE,52,2.0,6.0,-999,0.00,,,0.00,,2013-06-06 22:33:00,
2013-06-06 15:43:00,101.0,-99.9,29.95,NE,52,2.0,6.0,-999,0.00,,,0.00,,2013-06-06 22:43:00,
2013-06-06 15:53:00,99.0,-99.9,29.95,West,262,2.0,10.0,-999,0.00,,,0.00,,2013-06-06 22:53:00,
2013-06-06 16:03:00,100.0,-99.9,29.94,NNW,336,0.0,8.0,-999,0.00,,,0.00,,2013-06-06 23:03:00,
2013-06-06 16:13:00,98.0,-99.9,29.94,West,268,1.0,7.0,-999,0.00,,,0.00,,2013-06-06 23:13:00,
2013-06-06 16:22:00,98.0,-99.9,29.94,West,268,1.0,7.0,-999,0.00,,,0.00,,2013-06-06 23:22:00,
2013-06-06 16:33:00,99.0,-99.9,29.93,SW,220,0.0,3.0,-999,0.00,,,0.00,,2013-06-06 23:33:00,
2013-06-06 16:43:00,99.0,-99.9,29.93,SW,220,0.0,3.0,-999,0.00,,,0.00,,2013-06-06 23:43:00,
2013-06-06 16:52:00,101.0,-99.9,29.93,South,182,0.0,0.0,-999,0.00,,,0.00,,2013-06-06 23:52:00,
2013-06-06 17:02:00,101.0,-99.9,29.93,SW,236,0.0,6.0,-999,0.00,,,0.00,,2013-06-07 00:02:00,
2013-06-06 17:13:00,101.0,-99.9,29.93,SW,236,0.0,6.0,-999,0.00,,,0.00,,2013-06-07 00:13:00,
2013-06-06 17:22:00,99.0,-99.9,29.92,NW,313,0.0,0.0,-999,0.00,,,0.00,,2013-06-07 00:22:00,
2013-06-06 17:32:00,100.0,-99.9,29.92,NW,310,0.0,0.0,-999,0.00,,,0.00,,2013-06-07 00:32:00,
2013-06-06 17:43:00,100.0,-99.9,29.92,NW,310,0.0,0.0,-999,0.00,,,0.00,,2013-06-07 00:43:00,
2013-06-06 17:52:00,100.0,-99.9,29.92,WNW,291,0.0,0.0,-999,0.00,,,0.00,,2013-06-07 00:52:00,
2013-06-06 18:03:00,98.0,-99.9,29.92,WNW,302,0.0,0.0,-999,0.00,,,0.00,,2013-06-07 01:03:00,
2013-06-06 18:12:00,99.0,-99.9,29.92,West,270,0.0,0.0,-999,0.00,,,0.00,,2013-06-07 01:12:00,
2013-06-06 18:22:00,99.0,-99.9,29.92,West,270,0.0,0.0,-999,0.00,,,0.00,,2013-06-07 01:22:00,
2013-06-06 18:33:00,96.0,-99.9,29.92,WNW,295,0.0,0.0,-999,0.00,,,0.00,,2013-06-07 01:33:00,
2013-06-06 18:42:00,96.0,-99.9,29.92,WNW,295,0.0,0.0,-999,0.00,,,0.00,,2013-06-07 01:42:00,
2013-06-06 18:53:00,96.0,-99.9,29.93,NW,320,0.0,0.0,-999,0.00,,,0.00,,2013-06-07 01:53:00,
2013-06-06 19:02:00,94.0,-99.9,29.93,NW,320,1.0,0.0,-999,0.00,,,0.00,,2013-06-07 02:02:00,
2013-06-06 19:12:00,94.0,-99.9,29.93,NW,320,1.0,0.0,-999,0.00,,,0.00,,2013-06-07 02:12:00,
2013-06-06 19:22:00,92.0,-99.9,29.93,NW,320,0.0,0.0,-999,0.00,,,0.00,,2013-06-07 02:22:00,
2013-06-06 19:32:00,91.0,-99.9,29.93,NW,320,0.0,0.0,-999,0.00,,,0.00,,2013-06-07 02:32:00,
2013-06-06 19:42:00,91.0,-99.9,29.93,NW,320,0.0,0.0,-999,0.00,,,0.00,,2013-06-07 02:42:00,
2013-06-06 19:52:00,90.0,-99.9,29.94,West,281,0.0,0.0,-999,0.00,,,0.00,,2013-06-07 02:52:00,
2013-06-06 20:02:00,89.0,-99.9,29.94,West,281,0.0,0.0,-999,0.00,,,0.00,,2013-06-07 03:02:00,
2013-06-06 20:12:00,87.0,-99.9,29.95,West,281,0.0,0.0,-999,0.00,,,0.00,,2013-06-07 03:12:00,
2013-06-06 20:22:00,87.0,-99.9,29.95,West,281,0.0,0.0,-999,0.00,,,0.00,,2013-06-07 03:22:00,
2013-06-06 20:33:00,86.0,-99.9,29.95,West,281,0.0,0.0,-999,0.00,,,0.00,,2013-06-07 03:33:00,
2013-06-06 20:44:00,86.0,-99.9,29.95,West,281,0.0,0.0,-999,0.00,,,0.00,,2013-06-07 03:44:00,
2013-06-06 20:53:00,85.0,-99.9,29.96,West,281,0.0,0.0,-999,0.00,,,0.00,,2013-06-07 03:53:00,
2013-06-06 21:03:00,85.0,-99.9,29.96,West,281,0.0,0.0,-999,0.00,,,0.00,,2013-06-07 04:03:00,
2013-06-06 21:12:00,84.0,-99.9,29.98,West,281,0.0,0.0,-999,0.00,,,0.00,,2013-06-07 04:12:00,
2013-06-06 21:23:00,84.0,-99.9,29.98,West,281,0.0,0.0,-999,0.00,,,0.00,,2013-06-07 04:23:00,
2013-06-06 21:33:00,83.0,-99.9,29.98,West,281,0.0,0.0,-999,0.00,,,0.00,,2013-06-07 04:33:00,
2013-06-06 21:42:00,83.0,-99.9,29.98,West,281,0.0,0.0,-999,0.00,,,0.00,,2013-06-07 04:42:00,
2013-06-06 21:54:00,82.0,-99.9,29.99,West,281,0.0,0.0,-999,0.00,,,0.00,,2013-06-07 04:54:00,
2013-06-06 22:03:00,81.0,-99.9,29.99,West,281,0.0,0.0,-999,0.00,,,0.00,,2013-06-07 05:03:00,
2013-06-06 22:12:00,80.0,-99.9,29.99,West,281,0.0,0.0,-999,0.00,,,0.00,,2013-06-07 05:12:00,
2013-06-06 22:23:00,80.0,-99.9,29.99,West,281,0.0,0.0,-999,0.00,,,0.00,,2013-06-07 05:23:00,
2013-06-06 22:32:00,80.0,-99.9,29.99,West,281,0.0,0.0,-999,0.00,,,0.00,,2013-06-07 05:32:00,
2013-06-06 22:43:00,80.0,-99.9,29.99,West,281,0.0,0.0,-999,0.00,,,0.00,,2013-06-07 05:43:00,
2013-06-06 22:52:00,80.0,-99.9,29.99,West,281,0.0,0.0,-999,0.00,,,0.00,,2013-06-07 05:52:00,
2013-06-06 23:02:00,80.0,-99.9,29.99,West,281,0.0,0.0,-999,0.00,,,0.00,,2013-06-07 06:02:00,
2013-06-06 23:12:00,80.0,-99.9,29.99,West,281,0.0,0.0,-999,0.00,,,0.00,,2013-06-07 06:12:00,
2013-06-06 23:22:00,77.0,-99.9,29.99,West,281,0.0,0.0,-999,0.00,,,0.00,,2013-06-07 06:22:00,
2013-06-06 23:32:00,77.0,-99.9,29.99,West,281,0.0,0.0,-999,0.00,,,0.00,,2013-06-07 06:32:00,
2013-06-06 23:43:00,77.0,-99.9,29.99,West,281,0.0,0.0,-999,0.00,,,0.00,,2013-06-07 06:43:00,
2013-06-06 23:52:00,78.0,-99.9,29.99,West,281,0.0,0.0,-999,0.00,,,0.00,,2013-06-07 06:52:00,